Location: *
(44.3683°N, 6.6958°E)
Time: 06:33:08
(UTC+00:00)

Cosmos 1833 Rocket - Pass Details

Date: 14 October 2019
Orbit: 833 x 839 km, 71.0° (Epoch: 12 November)

Event Time Altitude Azimuth Distance (km) Brightness Sun altitude
Rises 19:23:31 0° 333° (NNW) 3,391 6.4 -27.7°
Reaches altitude 10° 19:25:57 10° 333° (NNW) 2,454 5.6 -28.2°
Enters shadow 19:31:18 79° 294° (WNW) 857 2.7 -29.1°
